TimeEST,TemperatureF,Dew PointF,Humidity,Sea Level PressureIn,VisibilityMPH,Wind Direction,Wind SpeedMPH,Gust SpeedMPH,PrecipitationIn,Events,Conditions,WindDirDegrees,DateUTC
12:15 AM,62.6,59.0,88,29.98,10.0,NW,20.7,28.8,N/A,,Mostly Cloudy,310,2013-03-06 05:15:00
12:35 AM,60.8,57.2,88,29.99,10.0,NW,12.7,26.5,N/A,,Scattered Clouds,310,2013-03-06 05:35:00
12:53 AM,57.0,48.0,72,29.99,-9999.0,NNW,18.4,31.1,N/A,,Unknown,330,2013-03-06 05:53:00
12:55 AM,57.2,51.8,82,30.00,10.0,NNW,15.0,27.6,N/A,,Scattered Clouds,330,2013-03-06 05:55:00
1:15 AM,55.4,46.4,72,30.01,10.0,NW,15.0,25.3,N/A,,Clear,310,2013-03-06 06:15:00
1:35 AM,53.6,46.4,77,30.02,10.0,NW,12.7,16.1,N/A,,Clear,310,2013-03-06 06:35:00
1:53 AM,52.0,42.1,69,30.02,-9999.0,NW,11.5,-,N/A,,Unknown,310,2013-03-06 06:53:00
1:55 AM,51.8,44.6,76,30.03,10.0,NW,9.2,16.1,N/A,,Clear,310,2013-03-06 06:55:00
2:15 AM,51.8,44.6,76,30.03,10.0,NW,11.5,-,N/A,,Clear,310,2013-03-06 07:15:00
2:35 AM,50.0,42.8,76,30.04,10.0,NW,11.5,20.7,N/A,,Clear,320,2013-03-06 07:35:00
2:53 AM,48.0,36.0,63,30.04,-9999.0,NW,15.0,20.7,N/A,,Unknown,310,2013-03-06 07:53:00
2:55 AM,48.2,37.4,66,30.05,10.0,NW,15.0,21.9,N/A,,Clear,320,2013-03-06 07:55:00
3:15 AM,46.4,33.8,62,30.05,10.0,NNW,15.0,23.0,N/A,,Clear,330,2013-03-06 08:15:00
3:35 AM,46.4,33.8,62,30.05,10.0,NNW,11.5,19.6,N/A,,Clear,340,2013-03-06 08:35:00
3:53 AM,45.0,30.9,58,30.04,-9999.0,NW,11.5,-,N/A,,Unknown,310,2013-03-06 08:53:00
3:55 AM,46.4,33.8,62,30.05,10.0,NW,9.2,-,N/A,,Clear,310,2013-03-06 08:55:00
4:15 AM,44.6,33.8,66,30.06,10.0,NW,8.1,-,N/A,,Clear,320,2013-03-06 09:15:00
4:35 AM,44.6,33.8,66,30.06,10.0,NW,5.8,-,N/A,,Clear,310,2013-03-06 09:35:00
4:53 AM,41.0,30.9,67,30.05,-9999.0,West,3.5,-,N/A,,Unknown,270,2013-03-06 09:53:00
4:55 AM,42.8,33.8,70,30.06,10.0,West,4.6,-,N/A,,Clear,280,2013-03-06 09:55:00
5:15 AM,41.0,33.8,76,30.07,10.0,WNW,5.8,-,N/A,,Clear,290,2013-03-06 10:15:00
5:35 AM,41.0,33.8,76,30.08,10.0,West,4.6,-,N/A,,Clear,280,2013-03-06 10:35:00
5:53 AM,39.0,30.9,73,30.08,-9999.0,West,4.6,-,N/A,,Unknown,280,2013-03-06 10:53:00
5:55 AM,41.0,35.6,81,30.09,10.0,WNW,4.6,-,N/A,,Clear,290,2013-03-06 10:55:00
6:15 AM,41.0,33.8,76,30.09,10.0,NW,6.9,-,N/A,,Clear,310,2013-03-06 11:15:00
6:35 AM,39.2,35.6,87,30.10,10.0,WNW,6.9,-,N/A,,Clear,300,2013-03-06 11:35:00
6:53 AM,39.0,32.0,76,30.09,-9999.0,WNW,8.1,-,N/A,,Unknown,290,2013-03-06 11:53:00
6:55 AM,39.2,35.6,87,30.10,10.0,WNW,8.1,-,N/A,,Clear,300,2013-03-06 11:55:00
7:15 AM,41.0,35.6,81,30.11,10.0,WNW,6.9,-,N/A,,Clear,300,2013-03-06 12:15:00
7:35 AM,41.0,37.4,87,30.12,10.0,NW,9.2,-,N/A,,Clear,310,2013-03-06 12:35:00
7:53 AM,44.1,30.0,58,30.12,-9999.0,WNW,13.8,-,N/A,,Unknown,300,2013-03-06 12:53:00
7:55 AM,44.6,33.8,66,30.13,10.0,NW,13.8,19.6,N/A,,Clear,310,2013-03-06 12:55:00
8:15 AM,46.4,32.0,57,30.13,10.0,NW,12.7,18.4,N/A,,Clear,310,2013-03-06 13:15:00
8:35 AM,46.4,32.0,57,30.14,10.0,WNW,17.3,21.9,N/A,,Clear,300,2013-03-06 13:35:00
8:53 AM,48.0,27.0,44,30.13,-9999.0,NW,12.7,21.9,N/A,,Unknown,320,2013-03-06 13:53:00
8:55 AM,48.2,30.2,50,30.14,10.0,NNW,15.0,19.6,N/A,,Clear,330,2013-03-06 13:55:00
9:15 AM,48.2,26.6,43,30.14,10.0,WNW,18.4,25.3,N/A,,Clear,300,2013-03-06 14:15:00
9:35 AM,50.0,24.8,37,30.15,10.0,NW,13.8,24.2,N/A,,Clear,320,2013-03-06 14:35:00
9:53 AM,50.0,24.1,36,30.13,-9999.0,NNW,16.1,21.9,N/A,,Unknown,330,2013-03-06 14:53:00
9:55 AM,50.0,26.6,40,30.14,10.0,NNW,11.5,20.7,N/A,,Clear,330,2013-03-06 14:55:00
10:15 AM,50.0,24.8,37,30.14,10.0,NNW,15.0,-,N/A,,Clear,330,2013-03-06 15:15:00
10:35 AM,51.8,23.0,33,30.14,10.0,NNW,17.3,28.8,N/A,,Clear,330,2013-03-06 15:35:00
10:53 AM,54.0,25.0,33,30.13,-9999.0,WNW,13.8,24.2,N/A,,Unknown,290,2013-03-06 15:53:00
10:55 AM,53.6,26.6,35,30.14,10.0,NW,15.0,21.9,N/A,,Clear,310,2013-03-06 15:55:00
11:15 AM,53.6,24.8,33,30.14,10.0,NNW,13.8,20.7,N/A,,Clear,340,2013-03-06 16:15:00
11:35 AM,53.6,24.8,33,30.13,10.0,NW,11.5,18.4,N/A,,Clear,320,2013-03-06 16:35:00
11:53 AM,55.0,23.0,29,30.12,-9999.0,WNW,13.8,24.2,N/A,,Unknown,300,2013-03-06 16:53:00
11:55 AM,55.4,24.8,31,30.12,10.0,NW,10.4,24.2,N/A,,Clear,320,2013-03-06 16:55:00
12:15 PM,57.2,26.6,31,30.11,10.0,NW,15.0,19.6,N/A,,Clear,320,2013-03-06 17:15:00
12:35 PM,59.0,26.6,29,30.11,10.0,West,13.8,-,N/A,,Clear,280,2013-03-06 17:35:00
12:53 PM,57.9,24.1,27,30.09,-9999.0,NW,13.8,21.9,N/A,,Unknown,310,2013-03-06 17:53:00
12:55 PM,59.0,24.8,27,30.10,10.0,NNW,11.5,20.7,N/A,,Clear,330,2013-03-06 17:55:00
1:15 PM,59.0,26.6,29,30.09,10.0,NW,13.8,21.9,N/A,,Clear,310,2013-03-06 18:15:00
1:35 PM,59.0,24.8,27,30.09,10.0,WNW,17.3,28.8,N/A,,Clear,300,2013-03-06 18:35:00
1:53 PM,59.0,23.0,25,30.07,-9999.0,NW,17.3,26.5,N/A,,Unknown,310,2013-03-06 18:53:00
1:55 PM,59.0,23.0,25,30.08,10.0,NW,15.0,25.3,N/A,,Clear,320,2013-03-06 18:55:00
2:15 PM,59.0,24.8,27,30.07,10.0,NW,16.1,23.0,N/A,,Clear,320,2013-03-06 19:15:00
2:35 PM,59.0,24.8,27,30.07,10.0,NNW,16.1,19.6,N/A,,Clear,330,2013-03-06 19:35:00
2:53 PM,59.0,24.1,26,30.05,-9999.0,West,19.6,26.5,N/A,,Unknown,280,2013-03-06 19:53:00
2:55 PM,59.0,24.8,27,30.07,10.0,WNW,18.4,26.5,N/A,,Clear,290,2013-03-06 19:55:00
3:15 PM,59.0,26.6,29,30.07,10.0,WNW,15.0,20.7,N/A,,Clear,300,2013-03-06 20:15:00
3:35 PM,59.0,26.6,29,30.06,10.0,NW,13.8,21.9,N/A,,Clear,320,2013-03-06 20:35:00
3:53 PM,59.0,26.1,28,30.06,-9999.0,WNW,16.1,25.3,N/A,,Unknown,300,2013-03-06 20:53:00
3:55 PM,59.0,26.6,29,30.07,10.0,NW,13.8,21.9,N/A,,Clear,310,2013-03-06 20:55:00
4:15 PM,59.0,28.4,31,30.07,10.0,NW,16.1,20.7,N/A,,Clear,310,2013-03-06 21:15:00
4:35 PM,59.0,28.4,31,30.07,10.0,NW,15.0,24.2,N/A,,Clear,320,2013-03-06 21:35:00
4:53 PM,57.9,26.1,30,30.06,-9999.0,NW,11.5,21.9,N/A,,Unknown,320,2013-03-06 21:53:00
4:55 PM,59.0,28.4,31,30.07,10.0,NW,13.8,20.7,N/A,,Clear,310,2013-03-06 21:55:00
5:15 PM,57.2,28.4,33,30.08,10.0,NW,11.5,19.6,N/A,,Clear,320,2013-03-06 22:15:00
5:35 PM,55.4,28.4,36,30.08,10.0,NW,12.7,20.7,N/A,,Clear,310,2013-03-06 22:35:00
5:53 PM,55.0,27.0,34,30.08,-9999.0,NW,10.4,19.6,N/A,,Unknown,310,2013-03-06 22:53:00
5:55 PM,55.4,28.4,36,30.09,10.0,NW,11.5,21.9,N/A,,Clear,320,2013-03-06 22:55:00
6:15 PM,53.6,28.4,38,30.10,10.0,NW,9.2,-,N/A,,Clear,320,2013-03-06 23:15:00
6:35 PM,53.6,30.2,41,30.10,10.0,NNW,6.9,-,N/A,,Clear,330,2013-03-06 23:35:00
6:53 PM,51.1,28.0,41,30.10,-9999.0,NW,6.9,-,N/A,,Unknown,310,2013-03-06 23:53:00
6:55 PM,51.8,30.2,44,30.11,10.0,NW,5.8,-,N/A,,Clear,320,2013-03-06 23:55:00
7:15 PM,50.0,30.2,47,30.12,10.0,North,5.8,-,N/A,,Clear,350,2013-03-07 00:15:00
7:35 PM,50.0,32.0,50,30.13,10.0,NNW,4.6,-,N/A,,Clear,330,2013-03-07 00:35:00
7:53 PM,48.0,28.9,48,30.12,-9999.0,NW,6.9,-,N/A,,Unknown,320,2013-03-07 00:53:00
7:55 PM,48.2,32.0,54,30.13,10.0,NW,5.8,-,N/A,,Clear,320,2013-03-07 00:55:00
8:15 PM,50.0,32.0,50,30.14,10.0,NNW,5.8,-,N/A,,Clear,330,2013-03-07 01:15:00
8:35 PM,46.4,32.0,57,30.15,10.0,NW,4.6,-,N/A,,Clear,320,2013-03-07 01:35:00
8:53 PM,46.0,28.9,51,30.15,-9999.0,NW,4.6,-,N/A,,Unknown,310,2013-03-07 01:53:00
8:55 PM,46.4,32.0,57,30.15,10.0,NW,4.6,-,N/A,,Clear,320,2013-03-07 01:55:00
9:35 PM,44.6,32.0,61,30.17,10.0,WNW,4.6,-,N/A,,Clear,290,2013-03-07 02:35:00
9:53 PM,42.1,30.0,62,30.17,-9999.0,WNW,4.6,-,N/A,,Unknown,290,2013-03-07 02:53:00
9:55 PM,42.8,32.0,66,30.18,10.0,WNW,4.6,-,N/A,,Clear,300,2013-03-07 02:55:00
10:15 PM,42.8,32.0,66,30.19,10.0,West,3.5,-,N/A,,Clear,280,2013-03-07 03:15:00
10:35 PM,42.8,33.8,70,30.19,10.0,NW,4.6,-,N/A,,Clear,310,2013-03-07 03:35:00
10:53 PM,42.1,30.0,62,30.18,-9999.0,NNW,3.5,-,N/A,,Unknown,330,2013-03-07 03:53:00
10:55 PM,42.8,33.8,70,30.19,10.0,Calm,Calm,-,N/A,,Clear,0,2013-03-07 03:55:00
11:15 PM,37.4,32.0,81,30.20,10.0,Calm,Calm,-,N/A,,Clear,0,2013-03-07 04:15:00
11:35 PM,37.4,32.0,81,30.21,10.0,WSW,3.5,-,N/A,,Clear,250,2013-03-07 04:35:00
11:53 PM,37.9,30.9,76,30.19,-9999.0,Calm,Calm,-,N/A,,Unknown,0,2013-03-07 04:53:00
11:55 PM,37.4,33.8,87,30.21,10.0,Calm,Calm,-,N/A,,Clear,0,2013-03-07 04:55:00